Regional Weather Roundup
Issued by NWS Albany, NY

Home | Current Version | Previous Version | Text Only | Print | Product List | Glossary On
Versions: 1 2 3 4 5 6 7 8 9 10 11 12 13 14 15 16 17 18 19 20 21 22 23 24 25 26 27 28 29 30 31 32 33 34 35 36 37 38 39 40 41 42 43 44 45 46 47 48 49 50
000
ASUS41 KALY 210610
RWRALY

NEW YORK STATE HOURLY WEATHER ROUNDUP
NATIONAL WEATHER SERVICE ALBANY NY
100 AM EST SUN DEC 21 2014

NOTE: "FAIR" INDICATES FEW OR NO CLOUDS BELOW 12,000 FEET WITH NO
SIGNIFICANT WEATHER AND/OR NO OBSTRUCTIONS TO VISIBILITY.

NYZ032-033-038>043-046>054-057>066-NYZ062>081-210700-
EAST


CITY           SKY/WX    TMP DP  RH WIND       PRES   REMARKS
ALBANY         CLOUDY    28  19  69 N3        30.30S
GLENS FALLS    CLOUDY    23  18  81 CALM      30.30F
POUGHKEEPSIE   FLURRIES  30  21  69 CALM      30.29S
MONTGOMERY     CLOUDY    29  24  82 N3        30.27S
WHITE PLAINS   CLOUDY    30  24  78 NW6       30.26R WCI  24
ISLIP          CLOUDY    33  26  75 W3        30.26R
NEW YORK CITY  CLOUDY    32  23  69 NW7       30.28F WCI  26
CENTRAL PARK   CLOUDY    32  21  64 NW5       30.30S WCI  27
$$

NYZ005>009-017-018-044>046-055-056-210700-
CENTRAL


CITY           SKY/WX    TMP DP  RH WIND       PRES   REMARKS
FULTON         CLOUDY    25  19  78 CALM      30.28F
SYRACUSE       CLOUDY    24  22  91 E3        30.28F
ROME           CLOUDY    25  20  81 E5        30.30F WCI  19
ELMIRA         CLOUDY    29  20  69 CALM      30.25S
BINGHAMTON     CLOUDY    24  19  81 CALM      30.20F
MONTICELLO     CLOUDY    25  23  93 CALM      30.22F
$$

NYZ026>034-041>043-210700-
NORTH


CITY           SKY/WX    TMP DP  RH WIND       PRES   REMARKS
WATERTOWN      CLOUDY    22  15  75 CALM      30.29F
FORT DRUM      NOT AVBL
MASSENA        CLOUDY    13  11  92 E3        30.34F FOG
SARANAC LAKE   CLOUDY    11  52 100 CALM      30.20S
PLATTSBURGH    CLOUDY    16  13  88 N6        30.33F WCI   7
$$

NYZ001>004-010>016-019>021-210700-
WEST


CITY           SKY/WX    TMP DP  RH WIND       PRES   REMARKS
NIAGARA FALLS  CLOUDY    25  22  88 CALM      30.25F
BUFFALO        CLOUDY    28  23  81 CALM      30.25F
DUNKIRK        CLOUDY    29  23  78 S8        30.26F WCI  21
JAMESTOWN      CLOUDY    25  19  80 CALM      30.19F
WELLSVILLE     CLOUDY    24  20  84 NW6       30.19S WCI  17
ROCHESTER      CLOUDY    30  23  75 CALM      30.26F
PENN YAN       CLOUDY    28  20  71 CALM      30.24F
$$

             KEY
       WCI = WIND CHILL INDEX
       VSB = VISIBILITY
       HX  = HEAT INDEX
$$


USA.gov is the U.S. government's official web portal to all federal, state and local government web resources and services.